カタログに戻る

HULIANWANG DIGUI-78

運用中通信LEO
NORAD 65310·PAYLOAD·🇨🇳 China

打ち上げ Aug 25, 2025 から Wenchang Space Launch Site

Loading…

次のパス (今後24時間)

TLE

最新Source: Space-Track

元期: Sep 14, 2026, 12:01 UTC

1 65310U 25187F   26257.50098930 -.00000103  00000-0  46406-4 0  9993
2 65310  50.0096 245.5213 0000672 336.0667  24.0173 13.29325111 51589

AllMySatでHULIANWANG DIGUI-78をリアルタイム追跡

Download on the App Store